Location: Arrodets-la-Barthe
(43.0306°N, 0.2829°E)
Time: 11:55:59
(UTC+00:00)

FO-29 - Visible Passes

Search period start: 02 April 2023 00:00
Search period end: 12 April 2023 00:00
Orbit: 801 x 1320 km, 98.5° (Epoch: 01 April)

Date Brightness Start Highest point End Pass type
(mag) Time Alt. Az. Time Alt. Az. Time Alt. Az.
02 Apr 12.6 03:09:11 10° ENE 03:11:50 12° E 03:14:24 10° ESE visible
02 Apr 10.2 04:50:48 10° NNE 04:58:20 72° ESE 05:05:00 10° S visible
03 Apr 11.7 03:56:29 10° NNE 04:02:49 30° E 04:08:31 10° SSE visible
04 Apr 12.7 03:05:08 10° ENE 03:06:39 11° E 03:08:10 10° E visible
04 Apr 10.3 04:45:52 10° NNE 04:53:16 67° E 04:59:47 10° S visible
05 Apr 11.8 03:51:38 10° NNE 03:57:40 28° E 04:03:09 10° SSE visible
06 Apr 10.4 04:40:55 10° NNE 04:48:10 63° E 04:54:33 10° S visible
07 Apr 11.9 03:46:48 10° NE 03:52:31 25° E 03:57:43 10° SE visible
08 Apr 10.5 04:35:59 10° NNE 04:43:04 58° E 04:49:18 10° S visible
09 Apr 12.0 03:42:00 10° NE 03:47:22 23° E 03:52:16 10° SE visible
10 Apr 10.6 04:31:03 10° NNE 04:37:57 54° E 04:44:01 10° S visible
11 Apr 12.1 03:37:12 10° NE 03:42:12 21° E 03:46:46 10° SE visible
